DW5082 Weather Reports


Display with metric or nautical units.
time (UTC)temp
F
wind
direction
speed
MPH
gust
MPH
rain 1hr
in
rain 24hr
in
rain mn
in
humidity
%
barometer
mb
20260506093204 58 283 0.0 5.0 0.00 0.00 0.00 32 1009.7
20260506091705 58 234 0.0 2.0 0.00 0.00 0.00 33 1009.7
20260506091205 58 257 0.0 3.0 0.00 0.00 0.00 33 1009.7
20260506090705 58 282 0.0 3.0 0.00 0.00 0.00 35 1009.7
20260506090205 58 209 0.0 3.0 0.00 0.00 0.00 35 1009.8
20260506084705 58 241 0.0 3.0 0.00 0.00 0.00 36 1010.0
20260506084204 58 250 0.0 2.0 0.00 0.00 0.00 37 1009.9
20260506083704 58 262 0.0 2.0 0.00 0.00 0.00 38 1009.9
20260506083206 58 243 0.0 3.0 0.00 0.00 0.00 39 1009.9
20260506081705 58 219 0.0 1.0 0.00 0.00 0.00 40 1009.9
20260506081205 59 211 0.0 2.0 0.00 0.00 0.00 43 1009.9
20260506080706 59 211 0.0 2.0 0.00 0.00 0.00 42 1009.9
20260506080205 59 281 0.0 3.0 0.00 0.00 0.00 43 1009.9
20260506073205 60 239 0.0 3.0 0.00 0.00 0.00 50 1009.9
20260506071705 60 269 0.0 2.0 0.00 0.00 0.00 53 1010.2
20260506071204 60 259 0.0 2.0 0.00 0.00 0.00 54 1010.2
20260506070705 60 254 0.0 1.0 0.00 0.00 0.00 56 1010.1
20260506070206 60 259 0.0 2.0 0.00 0.00 0.00 58 1010.1
20260506061205 66 228 1.0 6.0 0.00 0.00 0.00 66 1010.0
20260506060706 66 199 2.0 6.0 0.00 0.00 0.00 66 1010.0
20260506060205 66 190 2.0 6.0 0.00 0.00 0.00 66 1010.1
20260506051204 66 235 1.0 3.0 0.00 0.00 0.00 66 1010.6
20260506050705 67 208 2.0 6.0 0.00 0.00 0.00 66 1010.6
20260506050205 67 221 2.0 7.0 0.00 0.00 0.00 66 1010.7
20260506044205 67 218 1.0 3.0 0.00 0.00 0.00 66 1010.7
20260506043705 67 189 1.0 3.0 0.00 0.00 0.00 66 1010.7
20260506043205 67 219 1.0 3.0 0.00 0.00 0.00 65 1010.7
20260506041705 67 203 2.0 8.0 0.00 0.00 0.00 65 1010.6
20260506040705 67 194 4.0 9.0 0.00 0.00 0.00 64 1010.4
20260506040204 67 201 2.0 6.0 0.00 0.00 0.00 65 1010.5
20260506034705 67 198 2.0 7.0 0.00 0.00 0.00 64 1010.6
20260506034205 67 213 2.0 7.0 0.00 0.00 0.00 64 1010.5
20260506033705 67 205 1.0 3.0 0.00 0.00 0.00 64 1010.6
20260506031705 67 222 2.0 6.0 0.00 0.00 0.00 64 1010.4
20260506031204 67 201 3.0 6.0 0.00 0.00 0.00 64 1010.3
20260506030705 67 207 1.0 8.0 0.00 0.00 0.00 64 1010.4
20260506030204 67 205 2.0 8.0 0.00 0.00 0.00 64 1010.4
20260506024705 67 230 3.0 7.0 0.00 0.00 0.00 65 1010.4
20260506024205 67 242 1.0 5.0 0.00 0.00 0.00 65 1010.4
20260506023704 67 200 1.0 6.0 0.00 0.00 0.00 65 1010.5
20260506023204 67 195 1.0 6.0 0.00 0.00 0.00 65 1010.5
20260506021705 67 212 2.0 7.0 0.00 0.00 0.00 65 1010.3
20260506021206 66 209 5.0 12.0 0.00 0.00 0.00 65 1010.2
20260506020204 66 230 2.0 9.0 0.00 0.00 0.00 66 1010.2
20260506014705 66 244 2.0 7.0 0.00 0.00 0.00 66 1010.1
20260506014205 66 278 2.0 7.0 0.00 0.00 0.00 66 1010.0
20260506013204 66 253 1.0 7.0 0.00 0.00 0.00 66 1009.9
20260506011704 66 232 1.0 5.0 0.00 0.00 0.00 65 1009.7
20260506011205 66 242 1.0 6.0 0.00 0.00 0.00 65 1009.7
20260506010705 66 219 2.0 6.0 0.00 0.00 0.00 65 1009.6
20260506010205 67 220 1.0 5.0 0.00 0.00 0.00 65 1009.6
20260506004705 68 210 1.0 3.0 0.00 0.00 0.00 62 1009.4
20260506004205 69 269 1.0 3.0 0.00 0.00 0.00 61 1009.4
20260506003704 69 276 1.0 2.0 0.00 0.00 0.00 60 1009.2
20260506003204 70 226 2.0 6.0 0.00 0.00 0.00 59 1009.2
20260506001704 70 235 1.0 5.0 0.00 0.00 0.00 58 1008.9
20260506000705 71 246 2.0 5.0 0.00 0.00 0.00 57 1008.9
20260505234704 73 235 1.0 3.0 0.00 0.00 0.00 55 1008.7
20260505234205 74 221 0.0 3.0 0.00 0.00 0.00 52 1008.7
20260505233704 76 251 2.0 7.0 0.00 0.00 0.00 46 1008.6
20260505233204 77 204 3.0 9.0 0.00 0.00 0.00 37 1008.4
20260505231705 76 155 2.0 9.0 0.00 0.00 0.00 39 1008.2
20260505231204 75 202 1.0 9.0 0.00 0.00 0.00 43 1008.2
20260505230705 75 213 0.0 3.0 0.00 0.00 0.00 51 1008.2
20260505230205 75 246 0.0 5.0 0.00 0.00 0.00 52 1008.2
20260505224705 77 224 1.0 5.0 0.00 0.00 0.00 49 1007.9
20260505224204 78 216 2.0 7.0 0.00 0.00 0.00 48 1007.9
20260505223704 78 243 1.0 5.0 0.00 0.00 0.00 47 1007.8
20260505223205 79 223 2.0 12.0 0.00 0.00 0.00 43 1007.8
20260505221704 81 219 3.0 10.0 0.00 0.00 0.00 34 1007.6
20260505221204 81 199 5.0 13.0 0.00 0.00 0.00 33 1007.7
20260505220705 81 204 6.0 18.0 0.00 0.00 0.00 34 1007.7
20260505214704 81 200 2.0 9.0 0.00 0.00 0.00 36 1007.4
20260505214204 81 197 5.0 12.0 0.00 0.00 0.00 36 1007.4
20260505211704 80 231 1.0 5.0 0.00 0.00 0.00 49 1007.3
20260505210706 79 238 1.0 7.0 0.00 0.00 0.00 49 1007.3
20260505210204 80 276 2.0 7.0 0.00 0.00 0.00 49 1007.4
20260505204705 80 310 1.0 5.0 0.00 0.00 0.00 48 1007.3
20260505204205 80 307 2.0 3.0 0.00 0.00 0.00 47 1007.4
20260505203705 80 290 1.0 5.0 0.00 0.00 0.00 48 1007.4
20260505203205 80 264 0.0 7.0 0.00 0.00 0.00 50 1007.6
20260505201704 79 240 1.0 5.0 0.00 0.00 0.00 49 1007.6
20260505200704 79 253 3.0 5.0 0.00 0.00 0.00 49 1007.7
20260505200204 79 240 3.0 8.0 0.00 0.00 0.00 49 1007.8
20260505194704 79 234 1.0 3.0 0.00 0.00 0.00 51 1008.0
20260505194204 78 272 1.0 5.0 0.00 0.00 0.00 52 1008.0
20260505193704 78 266 2.0 6.0 0.00 0.00 0.00 52 1008.2
20260505193204 78 223 2.0 12.0 0.00 0.00 0.00 51 1008.2
20260505191704 79 265 2.0 7.0 0.00 0.00 0.00 50 1008.4
20260505191205 79 233 3.0 10.0 0.00 0.00 0.00 51 1008.3
20260505190705 79 222 2.0 6.0 0.00 0.00 0.00 50 1008.4
20260505190204 79 235 2.0 8.0 0.00 0.00 0.00 51 1008.5
20260505184705 79 71 1.0 5.0 0.00 0.00 0.00 50 1008.8
20260505183705 80 255 3.0 8.0 0.00 0.00 0.00 48 1009.0
20260505183204 80 326 3.0 14.0 0.00 0.00 0.00 47 1009.0
20260505181704 81 257 4.0 12.0 0.00 0.00 0.00 46 1009.0
20260505181204 82 233 3.0 8.0 0.00 0.00 0.00 45 1009.0
20260505180205 81 233 3.0 10.0 0.00 0.00 0.00 46 1009.1
20260505174204 81 215 3.0 8.0 0.00 0.00 0.00 47 1009.2
20260505173718 80 244 2.0 7.0 0.00 0.00 0.00 47 1009.3
20260505173205 80 223 3.0 12.0 0.00 0.00 0.00 47 1009.4
20260505171206 79 186 2.0 8.0 0.00 0.00 0.00 48 1009.5
20260505170204 79 14 2.0 9.0 0.00 0.00 0.00 47 1009.6
20260505164704 79 240 3.0 8.0 0.00 0.00 0.00 48 1010.0
20260505163205 78 225 4.0 9.0 0.00 0.00 0.00 49 1010.1
20260505161705 77 215 2.0 6.0 0.00 0.00 0.00 51 1010.3
20260505161204 77 213 3.0 6.0 0.00 0.00 0.00 51 1010.4
20260505160705 76 214 3.0 6.0 0.00 0.00 0.00 50 1010.4
20260505160205 76 263 2.0 10.0 0.00 0.00 0.00 51 1010.4
20260505151205 73 227 2.0 8.0 0.00 0.00 0.00 57 1010.9
20260505140205 68 271 3.0 7.0 0.00 0.00 0.00 62 1011.3
20260505130205 64 244 1.0 6.0 0.00 0.00 0.00 66 1011.1
20260505124204 61 214 1.0 5.0 0.00 0.00 0.00 64 1011.1
20260505123204 60 270 1.0 6.0 0.00 0.00 0.00 63 1011.2
20260505121704 60 235 1.0 3.0 0.00 0.00 0.00 60 1011.3
20260505121205 59 211 1.0 3.0 0.00 0.00 0.00 59 1011.3
20260505114704 59 87 0.0 0.0 0.00 0.00 0.00 55 1011.2
20260505114204 59 87 0.0 0.0 0.00 0.00 0.00 56 1011.0
20260505113204 59 79 0.0 3.0 0.00 0.00 0.00 61 1011.2
20260505111704 59 224 0.0 1.0 0.00 0.00 0.00 63 1011.5
20260505111204 58 218 0.0 1.0 0.00 0.00 0.00 64 1011.4
20260505110704 58 225 0.0 2.0 0.00 0.00 0.00 63 1011.4
20260505110204 58 207 1.0 3.0 0.00 0.00 0.00 63 1011.6
20260505101704 56 266 0.0 3.0 0.00 0.00 0.00 60 1011.1
20260505101204 56 242 0.0 1.0 0.00 0.00 0.00 60 1011.0
20260505100704 56 215 0.0 1.0 0.00 0.00 0.00 60 1010.9
20260505100205 56 240 1.0 3.0 0.00 0.00 0.00 61 1010.8
20260505094704 56 266 0.0 0.0 0.00 0.00 0.00 60 1010.5
20260505094204 56 266 0.0 0.0 0.00 0.00 0.00 61 1010.6
20260505093704 56 232 0.0 1.0 0.00 0.00 0.00 61 1010.5